#timestamp,LO_Frequency,Hit,StdDev 
1637758815.9,286047004.0,N
1637758835.7,286047002.2,N
1637758855.5,286046999.7,N
1637758875.4,286047001.9,N
1637758895.2,286047001.9,N
1637758915.0,286047002.0,N
1637758915.9,286047002.0,N
1637758935.8,286047004.1,N
1637758955.6,286047001.3,N
1637758975.5,286047002.0,N
1637758995.3,286047002.7,N
1637759015.1,286047001.8,N
1637759035.9,286047004.9,N
1637759055.7,286047009.2,Y
1637759075.5,286047006.6,P
1637759095.4,286047011.9,P
1637759115.2,286047010.8,N
1637759135.1,286047010.0,N
1637759136.0,286047010.0,N
1637759155.8,286047009.2,N
1637759175.6,286047007.8,N
1637759195.5,286047010.8,Y
1637759215.3,286047000.4,P
1637759235.1,286046999.9,N
1637759255.9,286046998.5,N
1637759275.7,286046998.6,N
1637759295.5,286046998.9,N
1637759315.4,286046996.9,N
1637759335.2,286046999.4,N
1637759355.1,286047001.2,N
1637759356.0,286047001.2,N
1637759375.8,286047000.7,N
1637759395.6,286047000.8,N
1637759415.5,286046998.1,N
1637759435.3,286047000.6,N
1637759455.1,286046999.7,N
1637759475.9,286046998.7,N
1637759495.7,286046999.0,N
1637759515.5,286046998.4,N
1637759565.4,286046998.6,E
1637759575.3,286046998.6,N
1637759595.1,286047002.7,P
1637759615.9,286047000.0,N
1637759635.7,286046998.1,N
1637759655.6,286046998.3,N
1637759675.4,286047000.8,N
1637759695.2,286047000.0,N
1637759715.1,286046998.2,N
1637759716.0,286046998.2,N
1637759735.8,286046998.8,N
1637759755.6,286047001.1,N
1637759775.5,286047000.9,N
1637759795.3,286046999.3,N
1637759815.1,286046996.8,N
1637759835.9,286046998.6,N
1637759855.7,286047001.2,N
1637759875.5,286047000.3,N
1637759895.4,286047002.7,N
1637759915.2,286047002.2,N
1637759935.1,286047000.1,N
1637759936.0,286047000.1,N
1637759955.8,286047000.5,N
1637759975.6,286047001.1,N
1637759995.5,286046999.9,N
1637760015.3,286047002.7,N
1637760035.1,286046999.7,N
1637760055.9,286047000.4,N
1637760075.7,286047000.5,N
1637760095.5,286047000.5,N
1637760115.4,286046998.4,N
1637760135.2,286046998.5,N
1637760155.1,286046998.3,N
1637760186.0,286047001.1,E
1637760195.9,286046998.1,N
1637760215.7,286047001.2,P
1637760235.6,286047000.5,N
1637760255.4,286047000.5,N
1637760275.2,286047000.1,N
1637760295.1,286047000.1,N
1637760296.0,286047000.1,N
1637760315.8,286047002.5,N
1637760335.6,286046999.8,N
1637760355.5,286047000.9,N
1637760375.3,286047002.7,N
1637760395.2,286047000.2,N
1637760415.9,286047002.8,N
1637760435.7,286046999.8,N
1637760455.6,286047002.8,N
1637760475.4,286047001.7,N
1637760495.2,286047003.9,N
1637760515.1,286047002.3,N
1637760516.0,286047002.3,N
1637760535.8,286047002.3,N
1637760555.6,286047001.8,N
1637760575.5,286047004.1,N
1637760595.3,286047001.9,N
1637760615.1,286047003.5,N
1637760635.9,286047005.9,Y
1637760655.7,286047001.7,P
1637760675.6,286047002.4,P
1637760695.4,286047002.3,P
1637760715.2,286047002.1,Y
1637760735.1,286047000.1,P
1637760736.0,286047000.1,N
1637760755.8,286046998.1,N
1637760775.6,286046998.5,N
1637760795.5,286047001.2,N
1637760815.3,286046998.9,N
1637760835.2,286046999.6,N
1637760855.9,286046996.9,N
1637760875.7,286046999.1,N
1637760895.6,286046999.1,N
1637760915.4,286046997.0,N
1637760935.2,286046996.7,N
1637760955.1,286046996.7,N
1637760956.0,286046996.7,N
1637760975.8,286046999.6,N
1637760995.6,286046996.9,N
1637761015.5,286046999.2,N
1637761035.3,286046998.3,N
1637761055.2,286046999.0,N
1637761075.9,286046999.1,N
1637761095.7,286046996.6,N
1637761115.6,286046998.8,N
1637761135.4,286046999.6,N
1637761155.2,286046997.7,N
1637761175.1,286046997.7,N
1637761176.0,286046997.7,N
1637761195.8,286046997.7,N
1637761215.6,286046997.7,N
1637761235.5,286046995.6,Y
1637761255.3,286046997.3,P
1637761275.2,286046999.2,N
1637761295.9,286046996.5,P
1637761315.7,286046998.9,N
1637761335.6,286047001.2,N
1637761355.4,286046998.6,N
1637761375.2,286046999.1,N
1637761395.1,286046996.7,N
1637761396.0,286046996.7,N
1637761415.8,286046996.7,N
1637761435.6,286046998.3,N
1637761455.5,286047000.8,N
1637761475.3,286046998.9,N
1637761495.1,286046997.1,N
1637761515.9,286046999.1,N
1637761535.7,286046998.2,N
1637761555.6,286047000.7,N
1637761575.4,286046999.0,N
1637761595.2,286046998.6,N
1637761615.1,286046998.9,N
1637761616.0,286046998.9,N
1637761635.8,286046999.0,N
1637761655.6,286046996.6,N
1637761675.5,286046999.6,N
1637761695.3,286046996.6,N
1637761715.1,286046997.6,N
1637761735.9,286046998.0,N
1637761755.7,286046997.1,N
1637761775.5,286046997.6,N
1637761795.4,286046995.4,Y
1637761815.2,286046996.8,P
1637761835.1,286046999.4,N
1637761836.0,286046999.4,N
1637761855.8,286046998.4,N
1637761875.6,286046999.5,N
1637761895.5,286046999.0,N
1637761915.3,286046998.6,N
1637761935.1,286046998.3,N
1637761955.9,286046999.6,N
1637761975.7,286046999.4,N
1637761995.5,286047000.7,N
1637762015.4,286047001.1,N
1637762035.2,286046998.4,N
1637762055.1,286046998.6,N
1637762056.0,286046998.6,N
1637762075.8,286046998.4,N
1637762095.6,286046998.4,N
1637762115.5,286046999.2,N
1637762135.3,286046999.3,N
1637762155.1,286046998.4,N
1637762175.9,286046998.9,N
1637762195.7,286046999.4,N
1637762215.5,286046999.4,N
1637762235.4,286046998.9,N
1637762255.2,286046999.5,N
1637762275.1,286046996.5,Y
1637762276.0,286046996.5,P
1637762295.8,286046998.7,N
1637762315.6,286046998.6,N
1637762335.5,286047000.4,N
1637762355.3,286046998.5,N
1637762375.1,286046998.2,N
1637762395.9,286047000.5,N
